Find Starlink 32143

NORAD ID: 60296 Int'l Des: 2024-132 Owner: SPXS Country: US Constellation: starlink operational
LEOCIRCULAR

当前视图

正在加载3D地球...

About Starlink 32143

Starlink 32143 (NORAD 60296) is a starlink constellation satellite (v2 mini) launched Jul 28, 2024 by SPXS of US. It operates in LEO, CIRCULAR orbit with a mass of 730.00 kg.

关于 Starlink 32143

正在加载描述...

即将过境

Passes for default location (London). Set your location on the main map for personalized predictions.

高度历史

Loading altitude history...

两行轨道根数

1 60296U 24132U 26168.61449070 .00001126 00000-0 48034-4 0 9992
2 60296 53.1626 307.9901 0001212 110.8675 249.2456 15.31703678106865
Epoch: Jun 17, 2026 • Age: 18 hours

当前状态

高度 475.6 km
速度 7.63 km/s
星下点 49.62°N, 30.15°E
发射日期 Jul 28, 2024
运行时间 1.8 years
类型 internet

技术详情

分类 Payload
质量 730.00 kg
干质量 700.00 kg
总质量 730.00 kg
长度 0.30 m
直径 4.10 m
跨度 29.00 m
形状 Box + pan
制造商 SPXS
平台类型 Starlink V2M
阶段状态 In Orbit
所有者/国家 SPXS/US

Most Searched